Regional Weather Roundup
Issued by NWS Newport/Morehead, NC

Home | Current Version | Previous Version | Text Only | Print | Product List | Glossary On
Versions: 1 2 3 4 5 6 7 8 9 10 11 12 13 14 15 16 17 18 19 20 21 22 23 24 25 26 27 28 29 30 31 32 33 34 35 36 37 38 39 40 41 42 43 44 45 46 47 48 49 50
000
ASUS42 KMHX 190024
RWRMHX
WEATHER ROUNDUP FOR EASTERN NORTH CAROLINA
NATIONAL WEATHER SERVICE NEWPORT/MOREHEAD CITY NC
700 PM EST WED JAN 18 2017

NOTE: "FAIR" INDICATES FEW OR NO CLOUDS BELOW 12,000 FEET
WITH NO SIGNIFICANT WEATHER AND/OR OBSTRUCTIONS TO VISIBILITY

NCZ015>017-031-032-045>047-102-103-190100-
NORTH COAST

CITY           SKY/WX    TMP DP  RH WIND       PRES   REMARKS
EDENTON        PTCLDY    51  47  85 CALM      30.03R
ELIZABETH CITY CLEAR     47  44  90 CALM      30.02R
KITTY HAWK     NOT AVBL
MANTEO         CLEAR     47  46  95 N5        30.02R

$$

NCZ045>047-081-094-103-104-190100-
CENTRAL COAST

CITY           SKY/WX    TMP DP  RH WIND       PRES   REMARKS
FRISCO         CLEAR     51  46  83 NE8       30.00R

$$

NCZ095-097-098-100-101-190100-
SOUTHERN COAST

CITY           SKY/WX    TMP DP  RH WIND       PRES   REMARKS
BEAUFORT       CLEAR     52  44  74 NE8       30.03R
CEDAR ISLAND   NOT AVBL
JACKSONVILLE   CLEAR     61  38  42 N6        30.01R
PINEY ISLAND   CLEAR    N/A N/A N/A N8        30.02
WILMINGTON     CLEAR     62  42  47 N7        30.00R


$$

NCZ011>013-027>030-043-044-078>080-089-090>093-098-190100-
COASTAL PLAIN

CITY           SKY/WX    TMP DP  RH WIND       PRES   REMARKS
AHOSKIE          N/A     49  47  92 CALM      30.03R
CLINTON        CLEAR     57  43  58 CALM      30.02R
ELIZABETHTOWN  CLEAR     59  42  52 CALM      30.01R
GOLDSBORO      CLEAR     60  35  39 NE3       30.00R
GREENVILLE     CLEAR     57  36  44 N5        30.04R
HAVELOCK       CLEAR     52  45  77 E6        30.04R
KENANSVILLE    CLEAR     50  39  66 CALM      30.03R
KINSTON        CLEAR     50  39  66 CALM      30.02R
NEW BERN       CLEAR     53  45  74 NE6       30.04R
RICHLANDS      CLEAR     56  39  53 CALM      30.02R
ROCKY MOUNT    CLEAR     52  39  61 NE3       30.02R
WASHINGTON     CLEAR     51  46  84 CALM        N/A
WHITEVILLE     CLEAR     62  41  46 CALM      30.00R

$$

AMZ130-135-150-152-154-156-158-170-250-252-270-ANZ085-086-088-633-658-670-190100-
MARINE OBSERVATIONS

STATION/POSITION TIME  TEMP    WIND        PRES    WAVE   SWELL
                       AIR SEA DIR/SP/G            HT/PER HT/PER
                 (UTC) (F)     (DEG/KT/KT) (MB)    (FT/S) (FT/S)
CHESAPEAKE LIGHT NOT AVBL
64 E VA BEACH    2350   52 56  350/ 17/ 19 1015.1    5/ 6   2/ 8
DUCK             2354   48 46  350/ 10/ 11 1015.6
2 E DUCK         0000      46                N/A     2/ 3
OREGON INLET     2354   47 51  330/  5/  6 1016.1
13E OREGON INLT  NOT AVBL
HATTERAS CG      2354   50 55   10/ 14/ 16 1015.5
DIAMOND BUOY     2350   56 72   20/ 25/ 31 1014.6    5/ 6
CAPE LOOKOUT     0000   53      10/ 13/ 17 1016.3
BEAUFORT LAB     2354   52 51   20/  6/  9 1015.9
30 SE NEW RVR IN 0008   57 62   60/ 19/ 27 1016.3
30 SE NEW RVR IN 2343      62                N/A     5/ 7
27 SE WRIGHTSVLE 0008   67 68   20/ 14/ 19 1015.7
5 SE WRIGHTSVLE  NOT AVBL
225 S CAPE HAT   2350   73 72  260/ 23/ 29 1012.1    8/ 7
41 SE CHARLESTON 2350   70 72  250/ 19/ 23 1015.2    4/ 6   2/10

$$




USA.gov is the U.S. government's official web portal to all federal, state and local government web resources and services.